Location: Rathdrum
(47.8130°N, 116.8960°W)
Time: 23:19:08
(UTC-07:00)

Amateur Radio Satellites - All Passes

Search period start: 22 March 2017 22:49
Search period end: 23 March 2017 22:49
Location: Rathdrum, 47.8130°N, 116.8960°W

Satellite Date Start Highest point End Downlink Frequencies (MHz)
Time Altitude Azimuth
DELFI C3 22 Mar 22:57:08 22:58:58 13° 271° (W) 23:00:49 145.870
TIGRISAT 22 Mar 23:05:52 23:10:23 79° 103° (ESE) 23:14:46 435.000
RS-15 22 Mar 23:09:44 23:21:46 64° 243° (WSW) 23:33:18 29.354- 29.394
SPROUT 22 Mar 23:13:04 23:16:27 23° 64° (ENE) 23:19:51 437.525
UNISAT 6 22 Mar 23:14:45 23:19:16 79° 285° (WNW) 23:23:39 437.425
ISS 22 Mar 23:16:58 23:20:11 56° 150° (SSE) 23:23:25 437.550
FO-29 22 Mar 23:19:28 23:25:50 62° 101° (E) 23:31:24 435.910
DX 1 22 Mar 23:24:46 23:27:35 17° 60° (ENE) 23:30:25 434.975-435.025
POLYITAN 1 22 Mar 23:28:57 23:31:14 14° 89° (E) 23:33:29 437.675
AIST 2D 22 Mar 23:30:23 23:33:08 21° 94° (E) 23:35:51 435.315
VELOX 1 22 Mar 23:32:14 23:36:21 40° 68° (ENE) 23:40:31 145.980
QB50P2 22 Mar 23:32:58 23:35:43 17° 90° (E) 23:38:29 145.880/145.840
SO-50 22 Mar 23:34:06 23:38:20 38° 42° (NE) 23:42:32 436.795
Tancredo 1 22 Mar 23:35:33 23:38:44 82° 153° (SSE) 23:41:57 437.200
ESTCUBE 1 22 Mar 23:37:36 23:42:02 63° 259° (WSW) 23:46:31 437.505/2401.250
PRISM 22 Mar 23:44:20 23:47:31 22° 297° (WNW) 23:50:42 437.425
DUCHIFAT 1 22 Mar 23:51:25 23:54:33 20° 92° (E) 23:57:39 145.980
50 SAT 22 Mar 23:55:57 23:59:11 39° 71° (ENE) 00:02:27 437.505
BEESAT 3 23 Mar 00:05:10 00:09:04 68° 124° (SE) 00:13:03 437.485
AO-85 23 Mar 00:09:44 00:13:00 21° 324° (NW) 00:16:10 145.980
BEESAT 2 23 Mar 00:11:45 00:15:21 34° 118° (ESE) 00:19:00 435.950
UKube-1 23 Mar 00:12:05 00:15:57 33° 67° (ENE) 00:19:51 .
LO-87 23 Mar 00:13:59 00:15:19 12° 271° (W) 00:16:40 145.935 - 145.965
BUGSAT 1 23 Mar 00:25:00 00:27:37 16° 90° (E) 00:30:13 437.445
NANOSAT C BR1 23 Mar 00:34:28 00:38:41 59° 101° (ESE) 00:42:50 145.865
EO-79 23 Mar 00:36:19 00:40:35 68° 102° (ESE) 00:44:48 145.935-145.965
TIGRISAT 23 Mar 00:44:04 00:46:27 14° 302° (WNW) 00:48:48 435.000
SPROUT 23 Mar 00:48:04 00:52:08 41° 262° (W) 00:56:15 437.525
ISS 23 Mar 00:53:33 00:56:45 47° 350° (N) 00:59:58 437.550
UNISAT 6 23 Mar 00:53:46 00:55:10 11° 305° (NW) 00:56:35 437.425
DX 1 23 Mar 00:59:01 01:03:19 62° 259° (WSW) 01:07:40 434.975-435.025
POLYITAN 1 23 Mar 01:03:14 01:07:28 64° 287° (WNW) 01:11:38 437.675
AIST 2D 23 Mar 01:03:20 01:06:22 28° 291° (WNW) 01:09:23 435.315
FO-29 23 Mar 01:05:10 01:10:22 26° 303° (WNW) 01:15:06 435.910
QB50P2 23 Mar 01:07:41 01:11:52 54° 288° (WNW) 01:15:59 145.880/145.840
VELOX 1 23 Mar 01:09:25 01:12:57 23° 267° (W) 01:16:32 145.980
Tancredo 1 23 Mar 01:12:01 01:15:05 41° 354° (N) 01:18:10 437.200
SO-50 23 Mar 01:14:41 01:18:47 35° 242° (WSW) 01:22:51 436.795
Oscar 19 23 Mar 01:17:33 01:21:19 20° 91° (E) 01:25:04 437.125/150
RS-15 23 Mar 01:25:07 01:31:29 16° 267° (W) 01:37:47 29.354- 29.394
DUCHIFAT 1 23 Mar 01:26:24 01:30:26 44° 290° (WNW) 01:34:26 145.980
50 SAT 23 Mar 01:30:25 01:32:27 15° 268° (W) 01:34:29 437.505
BEESAT 3 23 Mar 01:44:04 01:47:05 20° 325° (NW) 01:50:08 437.485
UKube-1 23 Mar 01:48:18 01:52:01 27° 265° (W) 01:55:44 .
BEESAT 2 23 Mar 01:49:31 01:53:08 32° 318° (NW) 01:56:49 435.950
BEESAT 23 Mar 01:54:59 01:59:16 34° 66° (ENE) 02:03:34 436.000
BUGSAT 1 23 Mar 01:59:12 02:03:20 55° 288° (WNW) 02:07:25 437.445
ITUPSAT 1 23 Mar 02:08:08 02:12:40 43° 68° (ENE) 02:17:12 437.325
NANOSAT C BR1 23 Mar 02:11:15 02:13:57 17° 299° (WNW) 02:16:39 145.865
EO-79 23 Mar 02:13:23 02:15:50 15° 301° (WNW) 02:18:18 145.935-145.965
O/OREOS (USA 219) 23 Mar 02:24:31 02:28:26 26° 52° (NE) 02:32:18 437.305
ISS 23 Mar 02:30:24 02:33:35 45° 9° (N) 02:36:48 437.550
Gurwin Techsat 1B 23 Mar 02:37:42 02:42:58 57° 101° (E) 02:48:11 435.225
MOZHAYETS 4 23 Mar 02:47:46 02:52:07 42° 69° (ENE) 02:56:26
Tancredo 1 23 Mar 02:48:27 02:51:36 52° 14° (NNE) 02:54:46 437.200
Oscar 19 23 Mar 02:55:57 03:01:03 62° 289° (WNW) 03:06:09 437.125/150
ITAMSAT 1 23 Mar 02:56:01 02:59:12 16° 89° (E) 03:02:19 435.822/435.867
KKS-1 23 Mar 03:00:17 03:03:00 16° 59° (ENE) 03:05:45 437.445
CUBESAT XI-V 23 Mar 03:30:06 03:33:36 22° 62° (ENE) 03:37:06 437.345
BEESAT 23 Mar 03:32:44 03:37:02 33° 264° (W) 03:41:22 436.000
ITUPSAT 1 23 Mar 03:46:40 03:50:39 26° 266° (W) 03:54:39 437.325
STARS 23 Mar 03:47:05 03:50:22 21° 62° (ENE) 03:53:41 437.465
AO-7 23 Mar 04:01:38 04:09:34 46° 100° (E) 04:17:26 .
O/OREOS (USA 219) 23 Mar 04:03:37 04:08:02 45° 251° (WSW) 04:12:25 437.305
ISS 23 Mar 04:06:55 04:10:11 62° 209° (SSW) 04:13:27 437.550
Gurwin Techsat 1B 23 Mar 04:18:20 04:22:33 24° 300° (WNW) 04:26:46 435.225
Tancredo 1 23 Mar 04:24:41 04:27:44 41° 213° (SSW) 04:30:47 437.200
MOZHAYETS 4 23 Mar 04:25:41 04:29:25 24° 267° (W) 04:33:11
ITAMSAT 1 23 Mar 04:34:02 04:39:16 78° 288° (WNW) 04:44:27 435.822/435.867
KKS-1 23 Mar 04:34:36 04:39:02 70° 257° (WSW) 04:43:33 437.445
Oscar 19 23 Mar 04:37:58 04:39:23 11° 309° (NW) 04:40:47 437.125/150
CUBESAT XI-V 23 Mar 05:06:13 05:10:41 49° 261° (W) 05:15:09 437.345
AO-85 23 Mar 05:16:01 05:19:16 24° 38° (NE) 05:22:30 145.980
STARS 23 Mar 05:22:05 05:26:23 50° 260° (W) 05:30:44 437.465
M-CUBED/EXP-1 PRIME 23 Mar 05:27:01 05:30:34 52° 66° (ENE) 05:34:27 437.505
DOVE 4 23 Mar 05:39:41 05:43:16 18° 88° (E) 05:46:52 437.250
ISS 23 Mar 05:44:54 05:46:07 12° 226° (SW) 05:47:18 437.550
LilacSat-2 23 Mar 05:52:14 05:53:44 12° 89° (E) 05:55:13 437.200
AO-7 23 Mar 05:54:32 06:02:24 49° 301° (WNW) 06:10:14 .
CUTE-I 23 Mar 05:56:32 05:59:51 16° 88° (E) 06:03:08 437.470
XW-2F 23 Mar 05:57:46 05:59:29 13° 89° (E) 06:01:11 145.980 - 146.000
STRAND 1 23 Mar 06:01:34 06:05:35 24° 61° (ENE) 06:09:38 437.568
ITAMSAT 1 23 Mar 06:15:18 06:17:53 14° 307° (NW) 06:20:28 435.822/435.867
XW-2D 23 Mar 06:20:06 06:23:12 24° 94° (E) 06:26:15 145.860 - 145.880
XW-2B 23 Mar 06:25:51 06:29:04 26° 95° (E) 06:32:15 145.730 - 145.750
NUDT-PHONESAT 23 Mar 06:33:38 06:36:48 26° 95° (E) 06:39:56 437.300
XW-2C 23 Mar 06:35:41 06:39:08 34° 97° (E) 06:42:34 145.795 - 145.815
KAITUO 1B 23 Mar 06:35:53 06:39:08 28° 96° (E) 06:42:20 145.475/437.950
BEESAT 3 23 Mar 06:41:51 06:44:59 21° 36° (NE) 06:48:06 437.485
YUBILEINY 23 Mar 06:46:08 06:52:18 22° 77° (ENE) 06:58:27 435.215
BEESAT 2 23 Mar 06:49:06 06:51:27 15° 29° (NNE) 06:53:48 435.950
AO-85 23 Mar 06:56:04 06:59:52 49° 238° (WSW) 07:03:44 145.980
M-CUBED/EXP-1 PRIME 23 Mar 07:03:22 07:05:27 14° 266° (W) 07:07:37 437.505
CUTE 1.7 + AOD 2 23 Mar 07:05:57 07:07:00 11° 87° (E) 07:08:04 437.475
DOVE 4 23 Mar 07:16:10 07:21:28 73° 287° (WNW) 07:26:44 437.250
LilacSat-2 23 Mar 07:24:41 07:28:25 60° 286° (WNW) 07:32:07 437.200
XW-2F 23 Mar 07:30:19 07:34:00 55° 286° (WNW) 07:37:39 145.980 - 146.000
CUTE-I 23 Mar 07:35:08 07:40:32 79° 287° (WNW) 07:45:52 437.470
STRAND 1 23 Mar 07:39:21 07:44:25 56° 259° (W) 07:49:31 437.568
CUBEBUG 2 23 Mar 07:43:28 07:45:46 14° 87° (E) 07:48:01 437.445
XW-2A 23 Mar 07:46:02 07:49:08 31° 97° (E) 07:52:11 145.665 - 145.685
AO-7 23 Mar 07:48:58 07:53:15 15° 324° (NW) 07:57:32 .
FO-29 23 Mar 07:54:02 07:56:54 13° 45° (NE) 07:59:42 435.910
XW-2D 23 Mar 07:54:07 07:57:25 29° 292° (WNW) 08:00:40 145.860 - 145.880
XW-2B 23 Mar 08:00:03 08:03:13 26° 293° (WNW) 08:06:22 145.730 - 145.750
NO-84 23 Mar 08:03:36 08:05:41 18° 133° (SE) 08:07:46 435.350 FM
HO-68 23 Mar 08:06:19 08:13:15 49° 100° (E) 08:20:09 435.675
NUDT-PHONESAT 23 Mar 08:07:35 08:10:41 25° 293° (WNW) 08:13:45 437.300
KAITUO 1B 23 Mar 08:10:02 08:13:04 24° 293° (WNW) 08:16:05 145.475/437.950
XW-2C 23 Mar 08:10:18 08:13:09 21° 295° (WNW) 08:16:00 145.795 - 145.815
BEESAT 3 23 Mar 08:18:57 08:22:59 67° 235° (SW) 08:26:57 437.485
BEESAT 2 23 Mar 08:25:57 08:30:01 65° 50° (NE) 08:34:01 435.950
TIGRISAT 23 Mar 08:33:03 08:35:44 15° 58° (ENE) 08:38:25 435.000
AAUSAT CUBESAT 2 23 Mar 08:35:37 08:39:20 31° 96° (E) 08:43:02 437.432
AO-73 23 Mar 08:37:49 08:40:29 16° 89° (E) 08:43:06 145.935
YUBILEINY 23 Mar 08:39:08 08:47:55 89° 279° (W) 08:56:42 435.215
CUTE 1.7 + AOD 2 23 Mar 08:39:11 08:43:25 82° 284° (WNW) 08:47:38 437.475
SEEDS 23 Mar 08:39:35 08:43:46 68° 102° (ESE) 08:47:55 437.485
UNISAT 6 23 Mar 08:41:21 08:44:37 19° 61° (ENE) 08:47:52 437.425
UWE-3 23 Mar 08:52:52 08:57:02 41° 97° (E) 09:01:05 435.000/436.395/437.385
DOVE 4 23 Mar 08:55:47 08:58:15 13° 305° (NW) 09:00:43 437.250
PRISM 23 Mar 09:00:48 09:04:41 46° 70° (ENE) 09:08:38 437.425
CUTE-I 23 Mar 09:16:53 09:19:44 15° 307° (NW) 09:22:33 437.470
CUBEBUG 2 23 Mar 09:18:26 09:22:57 70° 286° (WNW) 09:27:17 437.445
XW-2A 23 Mar 09:19:16 09:21:43 19° 295° (WNW) 09:24:08 145.665 - 145.685
FO-29 23 Mar 09:32:58 09:40:20 47° 65° (ENE) 09:47:17 435.910
NO-84 23 Mar 09:40:08 09:42:57 53° 333° (NNW) 09:45:51 435.350 FM
Oscar 11 23 Mar 09:41:35 09:45:53 61° 101° (E) 09:50:07 .
ZACube-1 23 Mar 09:42:08 09:46:28 79° 101° (E) 09:50:40 437.345
HO-68 23 Mar 09:54:19 10:00:52 40° 300° (WNW) 10:07:25 435.675
EO-79 23 Mar 09:59:57 10:00:47 10° 56° (NE) 10:01:36 145.935-145.965
BEESAT 2 23 Mar 10:04:49 10:07:19 16° 248° (WSW) 10:09:49 435.950
TIGRISAT 23 Mar 10:07:06 10:11:48 81° 256° (WSW) 10:16:31 435.000
AIST 2D 23 Mar 10:08:48 10:10:53 15° 64° (ENE) 10:12:59 435.315
AAUSAT CUBESAT 2 23 Mar 10:11:13 10:14:43 27° 293° (WNW) 10:18:13 437.432
AO-73 23 Mar 10:12:55 10:17:07 55° 288° (WNW) 10:21:11 145.935
UNISAT 6 23 Mar 10:16:13 10:20:53 63° 259° (W) 10:25:33 437.425
SEEDS 23 Mar 10:16:39 10:18:56 15° 300° (WNW) 10:21:15 437.485
CUTE 1.7 + AOD 2 23 Mar 10:17:40 10:18:32 11° 303° (WNW) 10:19:24 437.475
POLYITAN 1 23 Mar 10:24:33 10:27:27 18° 61° (ENE) 10:30:23 437.675
DELFI C3 23 Mar 10:28:06 10:32:04 62° 101° (E) 10:36:01 145.870
QB50P2 23 Mar 10:28:38 10:31:50 21° 63° (ENE) 10:35:02 145.880/145.840
UWE-3 23 Mar 10:29:47 10:33:16 23° 296° (WNW) 10:36:40 435.000/436.395/437.385
PRISM 23 Mar 10:37:27 10:40:15 18° 268° (W) 10:43:02 437.425
YUBILEINY 23 Mar 10:39:22 10:46:04 24° 302° (WNW) 10:52:45 435.215
DUCHIFAT 1 23 Mar 10:46:15 10:49:40 24° 64° (ENE) 10:53:06 145.980
PCSat 23 Mar 10:50:34 10:55:54 62° 119° (ESE) 11:01:17 145.827
CUBEBUG 2 23 Mar 10:58:16 10:58:40 10° 306° (NW) 10:59:04 437.445
BUGSAT 1 23 Mar 11:17:46 11:20:45 19° 62° (ENE) 11:23:46 437.445
FO-29 23 Mar 11:17:51 11:25:19 46° 263° (W) 11:32:27 435.910
NO-84 23 Mar 11:18:38 11:20:59 21° 354° (N) 11:23:25 435.350 FM
Oscar 11 23 Mar 11:18:50 11:21:33 17° 299° (WNW) 11:24:16 .
ZACube-1 23 Mar 11:20:05 11:22:07 13° 302° (WNW) 11:24:08 437.345
ESTCUBE 1 23 Mar 11:27:05 11:30:32 21° 92° (E) 11:33:59 437.505/2401.250
NANOSAT C BR1 23 Mar 11:29:19 11:33:33 68° 74° (ENE) 11:37:49 145.865
RS-15 23 Mar 11:30:23 11:37:06 17° 94° (E) 11:43:53 29.354- 29.394
EO-79 23 Mar 11:31:30 11:35:47 77° 74° (ENE) 11:40:05 145.935-145.965
LO-87 23 Mar 11:34:59 11:38:31 43° 99° (E) 11:42:00 145.935 - 145.965
AIST 2D 23 Mar 11:40:22 11:43:47 45° 261° (W) 11:47:13 435.315
HO-68 23 Mar 11:45:25 11:46:42 11° 322° (NW) 11:48:00 435.675
TIGRISAT 23 Mar 11:48:29 11:49:13 10° 275° (W) 11:49:57 435.000
POLYITAN 1 23 Mar 11:58:37 12:02:51 56° 259° (W) 12:07:06 437.675
QB50P2 23 Mar 12:03:11 12:07:19 47° 261° (W) 12:11:29 145.880/145.840
DELFI C3 23 Mar 12:04:13 12:06:24 14° 299° (WNW) 12:08:34 145.870
DUCHIFAT 1 23 Mar 12:21:09 12:25:09 39° 262° (W) 12:29:11 145.980
Gurwin Techsat 1B 23 Mar 12:24:13 12:28:08 21° 59° (ENE) 12:32:04 435.225
SPROUT 23 Mar 12:30:25 12:34:02 26° 94° (E) 12:37:37 437.525
PCSat 23 Mar 12:34:59 12:39:42 29° 320° (NW) 12:44:27 145.827
Oscar 19 23 Mar 12:37:24 12:42:09 41° 66° (ENE) 12:46:56 437.125/150
DX 1 23 Mar 12:44:30 12:47:31 18° 91° (E) 12:50:31 434.975-435.025
50 SAT 23 Mar 12:49:53 12:52:54 27° 96° (E) 12:55:56 437.505
BUGSAT 1 23 Mar 12:51:38 12:55:46 51° 260° (W) 12:59:57 437.445
VELOX 1 23 Mar 12:54:43 12:59:05 50° 100° (E) 13:03:25 145.980
NO-84 23 Mar 12:56:33 12:59:13 27° 16° (NNE) 13:02:03 435.350 FM
ESTCUBE 1 23 Mar 13:03:15 13:07:34 46° 290° (WNW) 13:11:52 437.505/2401.250
NANOSAT C BR1 23 Mar 13:07:35 13:09:44 14° 271° (W) 13:11:53 145.865
LO-87 23 Mar 13:09:18 13:11:38 16° 297° (WNW) 13:13:59 145.935 - 145.965
EO-79 23 Mar 13:10:27 13:12:05 12° 272° (W) 13:13:44 145.935-145.965
AO-7 23 Mar 13:14:28 13:20:42 24° 46° (NE) 13:26:56 .
UKube-1 23 Mar 13:31:07 13:35:10 36° 98° (E) 13:39:10 .
RS-15 23 Mar 13:35:09 13:46:55 65° 117° (ESE) 13:59:04 29.354- 29.394
Gurwin Techsat 1B 23 Mar 14:02:18 14:07:36 68° 257° (WSW) 14:12:56 435.225
SPROUT 23 Mar 14:06:05 14:10:01 35° 292° (WNW) 14:13:55 437.525
ITAMSAT 1 23 Mar 14:16:39 14:21:22 36° 65° (ENE) 14:26:07 435.822/435.867
Oscar 19 23 Mar 14:17:06 14:21:35 30° 265° (W) 14:26:05 437.125/150
DX 1 23 Mar 14:19:44 14:24:01 53° 289° (WNW) 14:28:18 434.975-435.025
50 SAT 23 Mar 14:23:04 14:25:53 23° 293° (WNW) 14:28:41 437.505
PCSat 23 Mar 14:23:09 14:24:59 12° 344° (NNW) 14:26:49 145.827
VELOX 1 23 Mar 14:31:53 14:35:13 21° 298° (WNW) 14:38:32 145.980
NO-84 23 Mar 14:33:51 14:37:01 80° 215° (SW) 14:40:30 435.350 FM
AO-7 23 Mar 15:04:02 15:12:22 81° 67° (ENE) 15:20:43 .
UKube-1 23 Mar 15:07:26 15:11:03 26° 296° (WNW) 15:14:39 .
BEESAT 23 Mar 15:28:39 15:33:16 47° 100° (E) 15:37:51 436.000
SO-50 23 Mar 15:31:41 15:35:49 32° 117° (ESE) 15:39:54 436.795
ITUPSAT 1 23 Mar 15:42:28 15:47:13 63° 102° (ESE) 15:51:56 437.325
RS-15 23 Mar 15:48:05 15:59:59 55° 324° (NW) 16:12:08 29.354- 29.394
ITAMSAT 1 23 Mar 15:56:01 16:00:49 36° 263° (W) 16:05:39 435.822/435.867
PCSat 23 Mar 16:09:52 16:11:04 11° 12° (NNE) 16:12:16 145.827
NO-84 23 Mar 16:12:42 16:14:12 12° 230° (SW) 16:15:45 435.350 FM
MOZHAYETS 4 23 Mar 16:15:57 16:20:29 61° 101° (E) 16:24:59
KKS-1 23 Mar 16:22:57 16:25:59 18° 91° (E) 16:29:00 437.445
LilacSat-2 23 Mar 16:38:10 16:39:25 11° 60° (ENE) 16:40:40 437.200
O/OREOS (USA 219) 23 Mar 16:42:22 16:44:36 14° 98° (E) 16:46:50 437.305
XW-2F 23 Mar 16:42:49 16:44:11 12° 60° (ENE) 16:45:33 145.980 - 146.000
DOVE 4 23 Mar 16:48:22 16:52:05 23° 62° (ENE) 16:55:58 437.250
YUBILEINY 23 Mar 16:50:14 16:54:26 14° 48° (NE) 16:58:36 435.215
HO-68 23 Mar 16:55:46 16:58:58 14° 42° (NE) 17:02:11 435.675
CUBESAT XI-V 23 Mar 16:59:09 17:03:17 31° 95° (E) 17:07:25 437.345
AO-7 23 Mar 16:59:26 17:06:01 25° 268° (W) 17:12:39 .
XW-2D 23 Mar 17:04:51 17:07:43 20° 65° (ENE) 17:10:35 145.860 - 145.880
BEESAT 23 Mar 17:06:58 17:10:47 24° 298° (WNW) 17:14:34 436.000
STARS 23 Mar 17:08:19 17:11:50 23° 93° (E) 17:15:20 437.465
XW-2B 23 Mar 17:10:32 17:13:32 23° 66° (ENE) 17:16:33 145.730 - 145.750
SO-50 23 Mar 17:11:47 17:16:11 42° 316° (NW) 17:20:34 436.795
NUDT-PHONESAT 23 Mar 17:16:31 17:19:24 21° 66° (ENE) 17:22:17 437.300
KAITUO 1B 23 Mar 17:19:23 17:22:22 23° 66° (ENE) 17:25:22 145.475/437.950
XW-2C 23 Mar 17:20:12 17:23:30 28° 68° (ENE) 17:26:48 145.795 - 145.815
CUTE-I 23 Mar 17:21:03 17:25:58 38° 65° (ENE) 17:30:53 437.470
ITUPSAT 1 23 Mar 17:21:15 17:24:37 19° 300° (WNW) 17:27:57 437.325
PCSat 23 Mar 17:52:05 17:56:32 25° 37° (NE) 18:00:57 145.827
MOZHAYETS 4 23 Mar 17:54:06 17:57:12 18° 299° (WNW) 18:00:18
KKS-1 23 Mar 17:58:29 18:02:54 57° 289° (WNW) 18:07:18 437.445
CUTE 1.7 + AOD 2 23 Mar 18:01:36 18:03:39 13° 59° (ENE) 18:05:42 437.475
RS-15 23 Mar 18:04:53 18:15:57 36° 357° (N) 18:26:59 29.354- 29.394
LilacSat-2 23 Mar 18:09:18 18:13:08 78° 257° (WSW) 18:16:59 437.200
XW-2F 23 Mar 18:13:59 18:17:47 74° 258° (WSW) 18:21:36 145.980 - 146.000
O/OREOS (USA 219) 23 Mar 18:18:49 18:23:21 76° 295° (WNW) 18:27:57 437.305
XW-2A 23 Mar 18:21:00 18:23:36 20° 66° (ENE) 18:26:12 145.665 - 145.685
DOVE 4 23 Mar 18:24:56 18:29:25 50° 262° (W) 18:34:14 437.250
M-CUBED/EXP-1 PRIME 23 Mar 18:36:12 18:40:05 27° 100° (E) 18:44:01 437.505
CUBESAT XI-V 23 Mar 18:36:31 18:40:40 33° 293° (WNW) 18:44:49 437.345
XW-2D 23 Mar 18:38:10 18:41:43 36° 263° (W) 18:45:16 145.860 - 145.880
HO-68 23 Mar 18:38:17 18:45:09 52° 64° (ENE) 18:52:01 435.675
CUBEBUG 2 23 Mar 18:44:03 18:47:30 20° 62° (ENE) 18:50:55 437.445
XW-2B 23 Mar 18:44:07 18:47:35 32° 263° (W) 18:51:03 145.730 - 145.750
STARS 23 Mar 18:44:10 18:48:22 42° 291° (WNW) 18:52:32 437.465
YUBILEINY 23 Mar 18:45:07 18:53:40 56° 74° (ENE) 19:02:10 435.215
NUDT-PHONESAT 23 Mar 18:49:44 18:53:10 33° 263° (W) 18:56:36 437.300
KAITUO 1B 23 Mar 18:52:54 18:56:16 31° 264° (W) 18:59:38 145.475/437.950
XW-2C 23 Mar 18:54:29 18:57:42 25° 266° (W) 19:00:54 145.795 - 145.815
SO-50 23 Mar 18:55:30 18:57:49 14° 339° (NNW) 19:00:08 436.795
CUTE-I 23 Mar 19:01:07 19:06:01 35° 264° (W) 19:10:57 437.470
ZACube-1 23 Mar 19:07:14 19:09:23 13° 58° (ENE) 19:11:30 437.345
AAUSAT CUBESAT 2 23 Mar 19:28:52 19:32:31 32° 68° (ENE) 19:36:11 437.432
SEEDS 23 Mar 19:34:07 19:38:16 71° 74° (ENE) 19:42:26 437.485
CUTE 1.7 + AOD 2 23 Mar 19:34:43 19:38:55 77° 257° (WSW) 19:43:09 437.475
PCSat 23 Mar 19:35:06 19:40:34 80° 238° (WSW) 19:45:59 145.827
AO-73 23 Mar 19:36:04 19:39:30 22° 63° (ENE) 19:42:54 145.935
STRAND 1 23 Mar 19:46:22 19:51:09 38° 97° (E) 19:55:52 437.568
UWE-3 23 Mar 19:52:20 19:56:51 52° 71° (ENE) 20:01:22 435.000/436.395/437.385
XW-2A 23 Mar 19:53:08 19:56:13 30° 263° (W) 19:59:19 145.665 - 145.685
O/OREOS (USA 219) 23 Mar 20:01:18 20:03:36 14° 318° (NW) 20:05:56 437.305
M-CUBED/EXP-1 PRIME 23 Mar 20:10:18 20:14:36 43° 296° (WNW) 20:19:00 437.505
CUBEBUG 2 23 Mar 20:19:00 20:23:42 60° 260° (W) 20:28:24 437.445
RS-15 23 Mar 20:20:20 20:32:15 48° 30° (NNE) 20:43:47 29.354- 29.394
HO-68 23 Mar 20:26:34 20:33:04 37° 264° (W) 20:39:38 435.675
Oscar 11 23 Mar 20:39:14 20:43:32 71° 75° (ENE) 20:47:51 .
ZACube-1 23 Mar 20:40:26 20:45:01 89° 263° (W) 20:49:33 437.345
YUBILEINY 23 Mar 20:42:24 20:50:10 38° 275° (W) 20:57:56 435.215
AAUSAT CUBESAT 2 23 Mar 21:04:34 21:08:00 26° 266° (W) 21:11:29 437.432
AO-73 23 Mar 21:11:01 21:15:26 49° 261° (W) 21:19:49 145.935
SEEDS 23 Mar 21:12:45 21:14:27 12° 272° (W) 21:16:10 437.485
AO-85 23 Mar 21:14:11 21:17:26 20° 115° (ESE) 21:20:33 145.980
DELFI C3 23 Mar 21:16:33 21:20:23 55° 73° (ENE) 21:24:14 145.870
PCSat 23 Mar 21:20:36 21:23:04 13° 257° (WSW) 21:25:33 145.827
STRAND 1 23 Mar 21:25:42 21:30:15 33° 296° (WNW) 21:34:46 437.568
UWE-3 23 Mar 21:30:06 21:33:35 20° 269° (W) 21:37:03 435.000/436.395/437.385
TIGRISAT 23 Mar 21:56:27 21:59:19 17° 89° (E) 22:02:08 435.000
UNISAT 6 23 Mar 22:05:13 22:08:41 22° 92° (E) 22:12:04 437.425
PRISM 23 Mar 22:13:36 22:17:39 47° 100° (E) 22:21:39 437.425
LO-87 23 Mar 22:14:25 22:17:35 30° 69° (ENE) 22:20:47 145.935 - 145.965
Oscar 11 23 Mar 22:18:08 22:20:10 13° 272° (W) 22:22:12 .
SO-50 23 Mar 22:19:27 22:22:39 18° 29° (NNE) 22:25:48 436.795
ZACube-1 23 Mar 22:20:43 22:21:56 11° 274° (W) 22:23:08 437.345
ISS 23 Mar 22:24:57 22:27:57 34° 145° (SE) 22:30:58 437.550
FO-29 23 Mar 22:25:13 22:30:12 24° 89° (E) 22:34:44 435.910
ESTCUBE 1 23 Mar 22:29:40 22:33:32 29° 65° (ENE) 22:37:25 437.505/2401.250
Tancredo 1 23 Mar 22:38:45 22:41:49 47° 148° (SSE) 22:44:54 437.200
